Regional Weather Roundup
Issued by NWS

Home | Current Version | Previous Version | Text Only | Print | Product List | Glossary Off
Versions: 1 2 3 4 5 6 7 8 9 10 11 12 13 14 15 16 17 18 19 20 21 22 23 24 25 26 27 28 29 30 31 32 33 34 35 36 37 38 39 40 41 42 43 44 45 46 47 48 49 50

079
ASUS43 KBIS 292302
RWRND

NORTH DAKOTA REGIONAL WEATHER ROUNDUP
NATIONAL WEATHER SERVICE BISMARCK ND
600 PM CDT SAT APR 29 2017

NOTE: "FAIR" INDICATES FEW OR NO CLOUDS BELOW 12,000 FEET WITH NO
SIGNIFICANT WEATHER AND/OR OBSTRUCTIONS TO VISIBILITY.


NDZ001>003-009>011-017-300000-
NORTHWEST NORTH DAKOTA

CITY           SKY/WX    TMP DP  RH WIND       PRES   REMARKS
WILLISTON      FAIR      63  31  30 SW10      30.15F
MINOT          FAIR      63  26  24 SW9G16    30.15F
MINOT AFB      CLOUDY    64  29  27 W10       30.14F
$$

NDZ018>021-031>035-040>046-300000-
SOUTHWEST NORTH DAKOTA

CITY           SKY/WX    TMP DP  RH WIND       PRES   REMARKS
BISMARCK       FAIR      62  21  20 E8        30.20F
DICKINSON      CLOUDY    59  18  20 VRB5      30.15F
GARRISON         N/A     61  21  21 SE7       30.16F
HETTINGER ARPT SUNNY     57  17  21 SW6       30.19F
$$

NDZ004>008-012>016-024-026-027-054-300000-
NORTHEAST NORTH DAKOTA

CITY           SKY/WX    TMP DP  RH WIND       PRES   REMARKS
GRAND FORKS    MOSUNNY   61  25  25 SE5       30.26F
GRND FRKS AFB  SUNNY     59  21  23 E3        30.26F
DEVILS LAKE    FAIR      60  17  18 SE5       30.22F
$$

NDZ022-023-025-028>030-036>039-047>053-300000-
SOUTHEAST NORTH DAKOTA

CITY           SKY/WX    TMP DP  RH WIND       PRES   REMARKS
FARGO          SUNNY     61  18  18 N8        30.24F
JAMESTOWN      FAIR      59  21  23 NE6       30.22F
$$





USA.gov is the U.S. government's official web portal to all federal, state and local government web resources and services.